311  
NZUS59 KLOT 161209  
HRRLOT  
 
CHICAGO AREA WEATHER ROUNDUP  
NATIONAL WEATHER SERVICE CHICAGO/ROMEOVILLE IL  
700 AM CDT TUE OCT 16 2018  
 
NOTE: "FAIR" INDICATES FEW OR NO CLOUDS BELOW 12,000 FEET WITH NO  
SIGNIFICANT WEATHER AND/OR OBSTRUCTIONS TO VISIBILITY.  
 
* THESE STATIONS ARE NOT UNDER NWS QUALITY CONTROL. THEY ALSO MAY NOT  
REPORT WEATHER SUCH AS PRECIPITATION OR FOG.  
 
ILZ005-006-012>014-019>023-161300-  
NORTHEAST ILLINOIS  
 
CITY SKY/WX TMP DP RH WIND PRES REMARKS  
OHARE N/A 35 29 78 SW9 30.20F WCI 28  
6HR MIN TEMP: 34; 6HR MAX TEMP: 37;  
 
MIDWAY N/A 35 29 78 SW9 30.22S WCI 28  
6HR MIN TEMP: 34; 6HR MAX TEMP: 37;  
 
AURORA N/A 32 29 88 S6 30.21F WCI 26  
6HR MIN TEMP: 30; 6HR MAX TEMP: 33;  
 
LANSING* N/A 32 29 88 SW7 30.24S WCI 26  
JOLIET* N/A 34 32 93 SW7 30.23F WCI 28  
WAUKEGAN N/A 34 28 79 SW13 30.16F WCI 25  
6HR MIN TEMP: 31; 6HR MAX TEMP: 35;  
 
DUPAGE AIRPORT N/A 32 28 85 SW10 30.20F WCI 24  
6HR MIN TEMP: 29; 6HR MAX TEMP: 33;  
 
WHEELING N/A 36 28 73 SW7 30.20F  
6HR MIN TEMP: 35; 6HR MAX TEMP: 37;  
 
KANKAKEE* N/A 32 29 90 SW7 30.26F WCI 26  
MORRIS* N/A 31 30 95 SW6 30.23S WCI 25  
LEWIS AIRPORT* N/A 32 31 96 SW6 30.23F WCI 26  
NORTHERLY ISL N/A 37 30 76 S6 N/A  
NORTHERLY IS NOT AVBL  
NORTHERLY ISL NOT AVBL  

 
 
WIZ051-052-058>065-066-070>072-161300-  
SOUTHEAST WISCONSIN  
 
CITY SKY/WX TMP DP RH WIND PRES REMARKS  
MILWAUKEE N/A 35 29 78 SW15 30.11F WCI 25  
6HR MIN TEMP: 34; 6HR MAX TEMP: 37;  
 
KENOSHA* N/A 35 30 82 SW9 30.15F WCI 28  
RACINE* N/A 36 28 73 SW14 30.15F  
WAUKESHA CLEAR 32 27 80 SW10G18 30.12F WCI 24  
WEST BEND CLOUDY 36 28 75 SW14G20 30.05F  

 
 
INZ001>003-010>013-019-020-161300-  
NORTHWEST INDIANA  
 
CITY SKY/WX TMP DP RH WIND PRES REMARKS  
GARY* CLEAR 36 32 87 SW5 30.25S  
MICHIGAN CITY* NOT AVBL  
RENSSELAER* NOT AVBL  
VALPARAISO N/A 32 26 78 SW5 30.24F WCI 27  

 
 
LMZ740>746-161300-  
SOUTHERN LAKE MICHIGAN  
 
STATION/POSITION TIME SKY/WX TEMP WIND PRES VSBY  
AIR DIR/SP/G  
(UTC) (F) (DEG/KT/KT) (MB) (MI)  
HARRISON CRIB 1140 42 230/ 15/ 18 N/A  
NORTHERLY ISL 1200 36 210/ 6/ 9 N/A  
CALUMET HARBOR 1148 36 200/ 8/ 10 1022.8F  
BURNS HARBOR 1140 35 190/ 7/ 9 1024.0S  
MICHIGAN CITY 1140 36 180/ 12/ 15 N/A  

 
 
ABBREVIATIONS USED IN REMARKS  
TC - TEMPERATURE IN CELSIUS  
WCI - WIND CHILL INDEX  
HX - HEAT INDEX  
VSB - VISIBILITY  

 
 
 
CLICK HERE TO GO TO PREVIOUS BULLETINS.

The Nexlab IL Page
The Nexlab IN Page Main Text Page